Location: Tucson
(32.2220°N, 110.9260°W)
Time: 13:48:19
(UTC-07:00)

ISS - Visible Passes

Search period start: 26 May 2017 00:00
Search period end: 05 June 2017 00:00
Orbit: 402 x 408 km, 51.6° (Epoch: 27 May)

Date Brightness Start Highest point End Pass type
(mag) Time Alt. Az. Time Alt. Az. Time Alt. Az.
26 May -3.9 03:48:44 10° NW 03:52:01 84° NE 03:55:15 10° SE visible
26 May -1.1 20:25:54 10° W 20:28:37 23° NW 20:31:20 10° NNE visible
27 May -1.9 03:01:13 26° E 03:01:13 26° E 03:03:01 10° ESE visible
27 May -2.0 04:34:36 11° W 04:36:10 14° SW 04:37:54 10° SSW visible
28 May -0.3 20:20:10 10° NW 20:21:17 11° NNW 20:22:24 10° N visible
